This is the latest recevied weather packets stored in our database for station/object MARKET. If no packets are shown the sender has not sent any weather packets the latest 10 day(s).
| Time | Temp. | Humidity | Pressure | Rain* | Wind** | Luminosity | Snow |
|---|---|---|---|---|---|---|---|
| 1777789632 | 5° C | 83% | 1010.4 hPa | - | - | - | - |
| 1777788432 | 5° C | 85% | 1010.6 hPa | - | - | - | - |
| 1777787232 | 5° C | 83% | 1010.3 hPa | - | - | - | - |
| 1777786032 | 4.44° C | 84% | 1010.1 hPa | - | - | - | - |
| 1777784832 | 4.44° C | 84% | 1009.8 hPa | - | - | - | - |
| 1777783632 | 4.44° C | 85% | 1009.6 hPa | - | - | - | - |
| 1777782431 | 5° C | 86% | 1009.8 hPa | - | - | - | - |
| 1777781435 | 4.44° C | 87% | 1009.5 hPa | - | - | - | - |
| 1777780032 | 4.44° C | 90% | 1008.9 hPa | - | - | - | - |
| 1777778832 | 4.44° C | 90% | 1008.5 hPa | - | - | - | - |
| 1777777632 | 5° C | 91% | 1008.4 hPa | - | - | - | - |
| 1777776432 | 5° C | 91% | 1008.4 hPa | - | - | - | - |
| 1777775231 | 5° C | 91% | 1008.5 hPa | - | - | - | - |
| 1777774032 | 5.56° C | 88% | 1008.8 hPa | - | - | - | - |
| 1777772832 | 5.56° C | 87% | 1008.7 hPa | - | - | - | - |
| 1777771632 | 5.56° C | 87% | 1008.5 hPa | - | - | - | - |
| 1777770432 | 5.56° C | 90% | 1008.2 hPa | - | - | - | - |
| 1777769232 | 5.56° C | 91% | 1008.1 hPa | - | - | - | - |
| 1777768032 | 6.11° C | 87% | 1007.8 hPa | - | - | - | - |
| 1777766832 | 6.67° C | 85% | 1007.7 hPa | - | - | - | - |
| 1777765632 | 7.22° C | 79% | 1007.6 hPa | - | - | - | - |
| 1777764431 | 6.67° C | 80% | 1007.8 hPa | - | - | - | - |
| 1777763231 | 7.22° C | 76% | 1007.4 hPa | - | - | - | - |
| 1777762032 | 7.22° C | 75% | 1007.4 hPa | - | - | - | - |
| 1777760832 | 6.11° C | 84% | 1007.4 hPa | - | - | - | - |
* Rain since midnight (hover to see other rain measurements)
** Current wind speed in m/s (hover to see current wind gust speed)